W7YP Weather Reports


time (UTC)temp
C
wind
direction
speed
KPH
gust
KPH
rain 1hr
cm
rain 24hr
cm
rain mn
cm
humidity
%
barometer
mb
20260904234413 15 139 0.0 0.0 0.00 0.08 0.08 75 1017.3
20260904233907 15 139 0.0 0.0 0.00 0.08 0.08 77 1017.3
20260904233408 15 139 0.0 0.0 0.00 0.08 0.08 77 1017.2
20260904232910 15 139 0.0 0.0 0.00 0.08 0.08 74 1017.2
20260904232408 15 139 0.0 0.0 0.00 0.08 0.08 74 1017.4
20260904231907 15 139 0.0 0.0 0.00 0.08 0.08 75 1017.4
20260904231408 15 139 0.0 0.0 0.00 0.08 0.08 77 1017.4
20260904230904 15 139 0.0 0.0 0.00 0.08 0.08 68 1017.4
20260904230403 15 139 0.0 0.0 0.00 0.08 0.08 73 1017.3
20260904225904 15 139 0.0 0.0 0.00 0.08 0.08 67 1017.3
20260904225404 15 139 0.0 4.8 0.00 0.08 0.08 68 1017.3
20260904224906 15 139 0.0 4.8 0.00 0.08 0.08 66 1017.4
20260904224405 15 160 0.0 1.6 0.00 0.08 0.08 69 1017.3
20260904223900 15 160 0.0 1.6 0.00 0.08 0.08 71 1017.3
20260904223400 15 113 0.0 1.6 0.00 0.08 0.08 69 1017.4
20260904222849 15 107 0.0 3.2 0.00 0.08 0.08 69 1017.2
20260904222344 15 106 0.0 3.2 0.00 0.08 0.08 72 1017.2
20260904221839 15 79 0.0 0.0 0.00 0.08 0.08 74 1017.2
20260904221338 15 79 0.0 3.2 0.00 0.08 0.08 74 1017.0
20260904220839 15 79 0.0 3.2 0.00 0.08 0.08 75 1017.2
20260904220339 15 63 0.0 3.2 0.00 0.08 0.08 75 1017.3
20260904215839 14 63 0.0 3.2 0.00 0.08 0.08 77 1017.4
20260904215339 14 240 0.0 0.0 0.00 0.08 0.08 79 1017.3
20260904214835 14 240 0.0 0.0 0.00 0.08 0.08 78 1017.5
20260904214325 14 240 0.0 0.0 0.00 0.10 0.08 76 1017.4
20260904213827 14 240 0.0 1.6 0.00 0.10 0.08 76 1017.4
20260904213325 14 240 0.0 3.2 0.00 0.10 0.08 76 1017.3
20260904212820 14 240 0.0 3.2 0.00 0.10 0.08 77 1017.3
20260904212310 14 242 0.0 1.6 0.00 0.10 0.08 80 1017.2
20260904211811 13 242 0.0 3.2 0.00 0.10 0.08 79 1017.3
20260904211310 13 242 0.0 3.2 0.00 0.10 0.08 80 1017.2
20260904210808 13 98 0.0 1.6 0.00 0.10 0.08 81 1016.8
20260904210527 13 99 0.0 4.8 0.00 0.10 0.08 81 1016.8
20260904205756 14 99 0.0 4.8 0.00 0.10 0.08 80 1016.6
20260904205256 14 216 0.0 0.0 0.00 0.10 0.08 79 1016.7
20260904204756 13 216 0.0 4.8 0.00 0.10 0.08 77 1016.7
20260904204519 13 216 0.0 4.8 0.00 0.10 0.08 77 1016.6
20260904203751 13 221 0.0 3.2 0.00 0.13 0.08 80 1016.7
20260904203513 13 264 0.0 1.6 0.00 0.13 0.08 78 1016.6
20260904202743 13 268 0.0 0.0 0.00 0.18 0.08 83 1016.7
20260904202231 13 268 0.0 0.0 0.00 0.20 0.08 84 1016.8
20260904201727 13 268 0.0 6.4 0.00 0.20 0.08 82 1016.8
20260904201217 13 269 0.0 6.4 0.00 0.20 0.08 83 1016.8
20260904200937 12 132 0.0 4.8 0.00 0.20 0.08 89 1016.7
20260904200215 12 105 0.0 4.8 0.00 0.20 0.08 90 1016.8
20260904195934 12 103 0.0 1.6 0.00 0.20 0.08 89 1016.7
20260904195207 12 102 0.0 3.2 0.00 0.20 0.08 90 1016.7
20260904194707 12 102 0.0 3.2 0.00 0.25 0.08 91 1016.8
20260904194205 12 166 0.0 1.6 0.00 0.25 0.08 91 1016.7
20260904193658 12 209 0.0 0.0 0.00 0.28 0.08 92 1016.7
20260904193148 11 209 0.0 0.0 0.00 0.36 0.08 93 1016.7
20260904192905 11 209 0.0 0.0 0.00 0.41 0.08 93 1016.8
20260904192405 11 209 0.0 1.6 0.00 0.41 0.08 93 1016.8
20260904191643 11 209 0.0 1.6 0.00 0.41 0.08 94 1016.7
20260904191144 11 209 0.0 0.0 0.00 0.41 0.08 94 1016.7
20260904190639 11 209 0.0 0.0 0.00 0.41 0.08 94 1016.7
20260904190138 11 209 0.0 0.0 0.00 0.41 0.08 94 1016.8
20260904185634 11 209 0.0 0.0 0.00 0.41 0.08 94 1016.7
20260904185137 11 209 0.0 1.6 0.00 0.41 0.08 94 1016.8
20260904184855 11 209 0.0 3.2 0.00 0.41 0.08 94 1016.6
20260904184124 11 209 0.0 4.8 0.00 0.41 0.08 95 1016.6
20260904183613 11 209 0.0 4.8 0.00 0.41 0.08 95 1016.6
20260904183115 11 0 0.0 6.4 0.00 0.41 0.08 95 1016.6
20260904182832 10 165 0.0 8.0 0.00 0.41 0.08 96 1016.5
20260904182109 10 155 3.2 8.0 0.00 0.41 0.08 97 1016.5
20260904181610 10 325 0.0 3.2 0.00 0.41 0.08 97 1016.4
20260904181113 10 325 0.0 6.4 0.00 0.41 0.08 97 1016.4
20260904180605 10 12 0.0 6.4 0.00 0.41 0.08 97 1016.5
20260904180100 10 311 0.0 3.2 0.00 0.41 0.08 97 1016.4
20260904175551 10 311 0.0 3.2 0.00 0.41 0.08 97 1016.4
20260904175045 10 311 0.0 0.0 0.00 0.41 0.08 97 1016.3
20260904174806 10 311 0.0 0.0 0.00 0.41 0.08 97 1016.2
20260904174041 10 311 0.0 0.0 0.00 0.41 0.08 97 1016.0
20260904173805 10 311 0.0 0.0 0.00 0.41 0.08 97 1015.9
20260904173041 10 311 0.0 1.6 0.00 0.41 0.08 97 1015.8
20260904172541 9 311 0.0 1.6 0.00 0.41 0.08 97 1015.7
20260904172039 9 300 0.0 3.2 0.00 0.41 0.08 98 1015.7
20260904171524 9 300 0.0 3.2 0.00 0.41 0.08 98 1015.7
20260904171242 9 302 0.0 0.0 0.00 0.41 0.08 98 1015.6
20260904170512 9 302 0.0 0.0 0.00 0.41 0.08 97 1015.5
20260904170012 9 302 0.0 3.2 0.00 0.41 0.08 97 1015.4
20260904165512 9 302 0.0 3.2 0.00 0.41 0.08 97 1015.3
20260904165241 9 302 0.0 0.0 0.00 0.41 0.08 97 1015.3
20260904164730 9 302 0.0 0.0 0.00 0.41 0.08 97 1015.3
20260904164007 9 302 0.0 0.0 0.00 0.41 0.08 97 1015.1
20260904163458 9 302 0.0 1.6 0.00 0.41 0.08 98 1015.0
20260904162953 8 302 0.0 1.6 0.00 0.41 0.08 98 1015.0
20260904162442 8 302 0.0 0.0 0.00 0.41 0.08 98 1014.9
20260904161945 8 302 0.0 0.0 0.00 0.41 0.08 98 1014.9
20260904161438 8 302 0.0 0.0 0.00 0.43 0.08 98 1014.7
20260904160938 8 302 0.0 0.0 0.03 0.43 0.08 98 1014.6
20260904160423 8 302 0.0 0.0 0.03 0.43 0.08 98 1014.6
20260904155923 8 302 0.0 0.0 0.03 0.43 0.08 97 1014.5
20260904155419 8 302 0.0 0.0 0.03 0.43 0.08 97 1014.4
20260904154914 8 302 0.0 0.0 0.05 0.43 0.08 97 1014.4
20260904154633 8 302 0.0 0.0 0.05 0.43 0.08 97 1014.4
20260904153914 8 302 0.0 0.0 0.05 0.43 0.08 97 1014.3
20260904153633 8 302 0.0 0.0 0.05 0.43 0.08 97 1014.4
20260904152914 8 302 0.0 0.0 0.05 0.43 0.08 98 1014.5
20260904152411 8 302 0.0 0.0 0.05 0.43 0.08 98 1014.4
20260904151904 8 302 0.0 0.0 0.05 0.43 0.08 98 1014.4
20260904151624 8 302 0.0 0.0 0.05 0.43 0.08 98 1014.4
20260904150904 8 302 0.0 0.0 0.03 0.41 0.05 97 1014.4
20260904150350 8 302 0.0 0.0 0.03 0.41 0.05 97 1014.4
20260904145850 8 302 0.0 0.0 0.05 0.41 0.05 97 1014.4
20260904145350 8 302 0.0 0.0 0.05 0.41 0.05 97 1014.3
20260904144849 8 302 0.0 0.0 0.03 0.41 0.03 97 1014.3
20260904144345 8 302 0.0 0.0 0.03 0.41 0.03 97 1014.1
20260904144107 8 302 0.0 0.0 0.03 0.41 0.03 97 1014.0
20260904143341 7 302 0.0 0.0 0.03 0.41 0.03 97 1014.0
20260904142837 7 302 0.0 0.0 0.03 0.41 0.03 97 1013.9
20260904142821 7 302 0.0 0.0 0.03 0.41 0.03 97 1013.7
20260904142058 7 302 0.0 0.0 0.03 0.41 0.03 97 1013.6
20260904141555 7 302 0.0 0.0 0.03 0.43 0.03 97 1013.5
20260904140836 7 302 0.0 0.0 0.03 0.43 0.03 97 1013.5
20260904140332 7 302 0.0 0.0 0.03 0.46 0.03 97 1013.5
20260904140054 7 302 0.0 0.0 0.00 0.43 0.00 97 1013.4
20260904135317 7 302 0.0 0.0 0.00 0.43 0.00 97 1013.3
20260904134811 7 302 0.0 0.0 0.00 0.46 0.00 97 1013.3
20260904134311 7 302 0.0 0.0 0.00 0.46 0.00 97 1013.3
20260904133813 7 302 0.0 0.0 0.00 0.46 0.00 97 1013.1
20260904133307 7 302 0.0 0.0 0.00 0.46 0.00 96 1013.1
20260904132807 7 302 0.0 0.0 0.00 0.46 0.00 96 1013.1
20260904132751 7 302 0.0 0.0 0.00 0.48 0.00 96 1013.1
20260904132020 7 302 0.0 0.0 0.00 0.48 0.00 96 1013.0
20260904131258 7 302 0.0 0.0 0.00 0.48 0.00 96 1013.0
20260904130758 7 302 0.0 0.0 0.00 0.48 0.00 96 1012.9
20260904130258 7 302 0.0 0.0 0.00 0.48 0.00 96 1012.9
20260904125801 7 302 0.0 0.0 0.00 0.48 0.00 96 1012.8
20260904125519 7 302 0.0 0.0 0.00 0.48 0.00 100 1012.7
20260904124753 7 302 0.0 0.0 0.00 0.48 0.00 96 1012.7
20260904124249 7 302 0.0 0.0 0.00 0.48 0.00 96 1012.4
20260904123744 7 302 0.0 0.0 0.00 0.48 0.00 96 1012.4
20260904123239 7 302 0.0 0.0 0.00 0.48 0.00 96 1012.5
20260904122729 7 302 0.0 0.0 0.00 0.48 0.00 96 1012.7
20260904122214 7 302 0.0 0.0 0.00 0.48 0.00 96 1012.6
20260904121714 7 302 0.0 3.2 0.00 0.48 0.00 96 1012.6
20260904121214 7 302 0.0 9.7 0.00 0.48 0.00 96 1012.6
20260904120714 7 296 0.0 14.5 0.00 0.48 0.00 97 1012.5
20260904120210 7 350 1.6 16.1 0.00 0.48 0.00 97 1012.5
20260904115930 7 233 3.2 16.1 0.00 0.48 0.00 97 1012.4
20260904115210 6 348 1.6 9.7 0.00 0.48 0.00 97 1012.0
20260904114710 6 299 1.6 8.0 0.00 0.48 0.00 97 1011.7
20260904114656 6 294 0.0 4.8 0.00 0.48 0.00 97 1011.6
20260904113706 6 207 0.0 0.0 0.00 0.48 0.00 97 1011.4
20260904113424 6 207 0.0 0.0 0.00 0.48 0.00 97 1011.1
20260904112920 6 207 0.0 0.0 0.00 0.48 0.00 97 1011.0
20260904112156 6 207 0.0 0.0 0.00 0.48 0.00 97 1010.7
20260904111656 6 207 0.0 0.0 0.00 0.48 0.00 97 1010.8
20260904111156 6 207 0.0 0.0 0.00 0.48 0.00 97 1010.6
20260904110641 6 207 0.0 0.0 0.00 0.48 0.00 97 1010.8
20260904110141 6 207 0.0 0.0 0.00 0.48 0.00 97 1010.8
20260904105631 6 207 0.0 0.0 0.00 0.48 0.00 97 1010.2
20260904105129 7 207 0.0 0.0 0.00 0.48 0.00 97 1009.7
20260904104612 7 207 0.0 0.0 0.00 0.48 0.00 97 1009.3
20260904104107 7 207 0.0 0.0 0.00 0.48 0.00 97 1009.3
20260904103546 7 207 0.0 0.0 0.00 0.48 0.00 97 1009.8
20260904103044 7 207 0.0 1.6 0.00 0.48 0.00 97 1009.7
20260904102542 6 207 0.0 1.6 0.00 0.48 0.00 97 1009.5
20260904102306 6 207 0.0 0.0 0.00 0.48 0.00 97 1009.2
20260904101539 6 207 0.0 0.0 0.00 0.48 0.00 97 1009.3
20260904101027 6 207 0.0 0.0 0.00 0.48 0.00 97 1009.2
20260904100527 6 207 0.0 0.0 0.00 0.48 0.00 97 1009.1
20260904100023 6 207 0.0 0.0 0.00 0.48 0.00 97 1008.9
20260904095523 7 207 0.0 0.0 0.00 0.48 0.00 97 1008.9
20260904095023 7 207 0.0 0.0 0.00 0.48 0.00 97 1008.9
20260904094523 7 207 0.0 0.0 0.00 0.48 0.00 97 1008.9
20260904094024 7 207 0.0 0.0 0.00 0.48 0.00 97 1009.0
20260904093523 7 207 0.0 0.0 0.00 0.48 0.00 97 1009.0
20260904093018 7 207 0.0 0.0 0.00 0.48 0.00 97 1008.9
20260904092508 7 207 0.0 0.0 0.00 0.48 0.00 97 1008.8
20260904092006 7 207 0.0 0.0 0.00 0.48 0.00 97 1008.9
20260904091726 7 207 0.0 0.0 0.00 0.48 0.00 97 1009.1
20260904090951 7 207 0.0 0.0 0.00 0.48 0.00 97 1009.2
20260904090444 7 207 0.0 0.0 0.00 0.48 0.00 97 1009.3
20260904085944 7 207 0.0 0.0 0.00 0.48 0.00 97 1009.3
20260904085434 7 207 0.0 0.0 0.00 0.48 0.00 97 1009.3
20260904084934 7 207 0.0 0.0 0.00 0.48 0.00 97 1009.5
20260904084434 7 207 0.0 0.0 0.00 0.48 0.00 97 1009.3
20260904083933 7 207 0.0 0.0 0.00 0.48 0.00 96 1009.5
20260904083420 7 207 0.0 0.0 0.00 0.48 0.00 96 1009.6
20260904083132 7 207 0.0 0.0 0.00 0.48 0.00 96 1009.6
20260904082410 7 207 0.0 0.0 0.00 0.48 0.00 96 1009.7
20260904081910 7 207 0.0 0.0 0.00 0.48 0.00 96 1009.7
20260904081410 7 207 0.0 1.6 0.00 0.48 0.00 96 1009.7
20260904081128 7 207 0.0 1.6 0.00 0.48 0.00 96 1009.7
20260904080401 7 207 0.0 0.0 0.00 0.48 0.00 96 1009.8
20260904075856 7 207 0.0 0.0 0.00 0.48 0.00 96 1009.8
20260904075340 7 207 0.0 0.0 0.00 0.48 0.00 96 1009.8
20260904074840 7 207 0.0 0.0 0.00 0.48 0.00 96 1009.8
20260904074341 7 207 0.0 0.0 0.00 0.48 0.00 96 1009.8
20260904074105 7 207 0.0 1.6 0.00 0.48 0.00 96 1009.9
20260904073336 7 207 0.0 1.6 0.00 0.48 0.00 96 1009.9
20260904072837 7 207 0.0 0.0 0.00 0.48 0.00 96 1009.9
20260904072334 7 207 0.0 1.6 0.00 0.48 0.00 96 1009.8
20260904071824 7 207 0.0 1.6 0.00 0.48 0.00 96 1009.9
20260904071316 8 207 0.0 0.0 0.00 0.48 0.00 96 1010.1
20260904070816 8 207 0.0 0.0 0.00 0.48 0.00 96 1009.9
20260904070317 8 207 0.0 0.0 0.00 0.48 0.00 96 1010.0
20260904065817 8 207 0.0 0.0 0.00 0.48 0.00 96 1010.1
20260904065307 8 207 0.0 4.8 0.00 0.48 0.00 96 1010.0
20260904064803 8 207 0.0 4.8 0.00 0.48 0.00 96 1010.0
20260904064302 8 207 0.0 0.0 0.00 0.48 0.00 96 1010.0
20260904063758 8 207 0.0 0.0 0.00 0.48 0.00 96 1010.1
20260904063518 8 207 0.0 0.0 0.00 0.48 0.00 96 1010.2
20260904062742 8 207 0.0 0.0 0.00 0.48 0.00 96 1010.1
20260904062243 8 207 0.0 0.0 0.00 0.48 0.00 96 1010.2
20260904062002 8 207 0.0 0.0 0.00 0.48 0.00 96 1010.3
20260904061243 8 207 0.0 0.0 0.00 0.48 0.00 96 1010.6
20260904061007 8 207 0.0 0.0 0.00 0.48 0.00 96 1010.7
20260904060238 8 207 0.0 0.0 0.00 0.48 0.00 96 1010.6
20260904055739 8 207 0.0 0.0 0.00 0.48 0.48 96 1010.6
20260904055239 8 207 0.0 0.0 0.00 0.48 0.48 96 1010.7
20260904054742 8 207 0.0 0.0 0.00 0.48 0.48 96 1010.7
20260904054229 8 207 0.0 0.0 0.00 0.48 0.48 96 1010.8
20260904053729 8 207 0.0 0.0 0.00 0.48 0.48 96 1010.8
20260904053219 8 207 0.0 0.0 0.00 0.48 0.48 96 1010.9
20260904052714 8 207 0.0 0.0 0.00 0.48 0.48 96 1011.0
20260904052217 8 207 0.0 0.0 0.00 0.48 0.48 96 1011.0
20260904051937 8 207 0.0 0.0 0.00 0.48 0.48 96 1010.9
20260904051215 8 207 0.0 0.0 0.00 0.48 0.48 96 1011.0
20260904050716 8 207 0.0 0.0 0.00 0.48 0.48 96 1011.1
20260904050215 8 207 0.0 0.0 0.00 0.48 0.48 96 1011.2
20260904045710 8 207 0.0 0.0 0.00 0.48 0.48 96 1011.1
20260904045201 8 207 0.0 0.0 0.00 0.48 0.48 96 1011.2
20260904044704 8 207 0.0 0.0 0.00 0.48 0.48 96 1011.2
20260904044201 8 207 0.0 0.0 0.00 0.48 0.48 95 1011.4
20260904043659 8 207 0.0 0.0 0.00 0.48 0.48 95 1011.5
20260904043404 8 207 0.0 0.0 0.00 0.48 0.48 95 1011.5
20260904043245 8 207 0.0 0.0 0.00 0.48 0.48 95 1011.5
20260904042151 8 207 0.0 0.0 0.00 0.48 0.48 95 1011.6
20260904041651 9 207 0.0 0.0 0.00 0.48 0.48 95 1011.6
20260904041152 9 207 0.0 0.0 0.00 0.48 0.48 95 1011.4
20260904040655 9 207 0.0 0.0 0.00 0.48 0.48 95 1011.5
20260904040150 9 207 0.0 1.6 0.00 0.48 0.48 95 1011.6
20260904035647 9 207 0.0 1.6 0.00 0.48 0.48 95 1011.6
20260904035404 9 207 0.0 1.6 0.00 0.48 0.48 94 1011.8
20260904034645 9 205 0.0 0.0 0.00 0.48 0.48 94 1011.7
20260904034138 9 205 0.0 0.0 0.00 0.48 0.48 94 1011.8
20260904033638 10 205 0.0 0.0 0.00 0.48 0.48 94 1011.9
20260904033138 10 205 0.0 0.0 0.00 0.48 0.48 94 1012.0
20260904032638 10 205 0.0 0.0 0.00 0.48 0.48 94 1012.1
20260904032141 10 205 0.0 0.0 0.00 0.48 0.48 94 1012.0
20260904031616 10 205 0.0 0.0 0.00 0.48 0.48 94 1011.9
20260904031113 10 205 0.0 1.6 0.00 0.48 0.48 94 1012.0
20260904030608 10 205 0.0 1.6 0.00 0.48 0.48 94 1012.0
20260904030104 10 205 0.0 0.0 0.00 0.48 0.48 93 1012.1
20260904025603 10 205 0.0 1.6 0.00 0.48 0.48 93 1012.1
20260904025049 11 205 0.0 1.6 0.00 0.48 0.48 93 1012.0
20260904024804 11 205 0.0 0.0 0.00 0.48 0.48 93 1012.1
20260904024256 11 205 0.0 0.0 0.00 0.48 0.48 93 1012.0
20260904023542 11 205 0.0 0.0 0.00 0.48 0.48 93 1012.0
20260904023039 11 205 0.0 0.0 0.00 0.48 0.48 94 1011.9
20260904022524 11 205 0.0 0.0 0.00 0.48 0.48 94 1011.9
20260904022019 11 205 0.0 0.0 0.00 0.48 0.48 94 1011.9
20260904021519 11 205 0.0 0.0 0.00 0.48 0.48 94 1011.9
20260904021009 12 205 0.0 0.0 0.00 0.48 0.48 94 1011.9
20260904020738 12 205 0.0 0.0 0.00 0.48 0.48 94 1012.0
20260904020010 12 205 0.0 1.6 0.00 0.48 0.48 94 1011.9
20260904015505 12 205 0.0 1.6 0.00 0.48 0.48 94 1012.0
20260904015005 12 205 0.0 3.2 0.00 0.48 0.48 95 1012.0
20260904014505 12 205 0.0 3.2 0.00 0.48 0.48 94 1011.9
20260904013956 12 205 0.0 0.0 0.00 0.48 0.48 94 1011.9
20260904013455 12 205 0.0 0.0 0.00 0.48 0.48 95 1011.9
20260904012936 12 205 0.0 0.0 0.00 0.48 0.48 94 1012.0
20260904012437 12 205 0.0 0.0 0.00 0.48 0.48 94 1011.9
20260904011936 12 205 0.0 0.0 0.00 0.48 0.48 94 1012.0
20260904011426 13 205 0.0 0.0 0.00 0.48 0.48 94 1012.1
20260904011408 13 205 0.0 0.0 0.00 0.48 0.48 94 1012.0
20260904010425 13 205 0.0 0.0 0.00 0.48 0.48 94 1011.9
20260904005913 13 205 0.0 0.0 0.00 0.51 0.48 94 1011.9
20260904005406 13 205 0.0 0.0 0.00 0.51 0.48 94 1012.0
20260904004906 13 205 0.0 0.0 0.00 0.51 0.48 94 1012.0
20260904004407 13 205 0.0 0.0 0.00 0.53 0.48 94 1012.1
20260904003903 13 205 0.0 0.0 0.00 0.53 0.48 94 1012.4
20260904003402 13 205 0.0 0.0 0.00 0.56 0.48 94 1012.2
20260904002847 13 205 0.0 0.0 0.00 0.56 0.48 94 1012.4
20260904002350 13 205 0.0 0.0 0.00 0.58 0.48 94 1012.5
20260904001847 13 205 0.0 0.0 0.00 0.58 0.48 94 1012.2
20260904001343 13 205 0.0 0.0 0.00 0.61 0.48 94 1012.2
20260904000842 13 205 0.0 0.0 0.00 0.64 0.48 94 1012.1
20260904000343 13 205 0.0 3.2 0.00 0.69 0.48 94 1012.1
20260903235844 13 205 0.0 3.2 0.00 0.71 0.48 95 1012.2
20260903235343 13 205 0.0 0.0 0.00 0.74 0.48 95 1012.1